sat.trackr.live / text

‹ back to catalog

STARLINK-36572

NORAD 67536 · 2026-014E

PAYLOAD ACTIVE UNKNOWN

§ Identity

Operator
Country
US
Launch date
2026-01-22
Launch site
AFWTR
Launch vehicle
Mass (kg)
RCS (m²)

Purposes: comms

External: N2YO · Heavens-Above · Gunter

§ Orbital elements

Epoch: 2026-05-25T02:40:16.029696Z

Period
93.91 min
Inclination
97.2883°
Eccentricity
0.0001034
Mean motion
15.33454973 rev/d
Perigee alt
464.8 km
Apogee alt
466.2 km
Semi-major
6,843.7 km
B*
5.4692e-4
RAAN
32.1321°
Arg perigee
76.8525°
Mean anomaly
283.2833°
Rev number
2,049

§ Raw data

STARLINK-365721 67536U 26014E   26145.11129664  .00017628  00000+0  54692-3 0  99902 67536  97.2883  32.1321 0001034  76.8525 283.2833 15.33454973 20497

JSON: /api/v1/satellites/67536 · /tle

For live sub-satellite position, see the globe view (requires WebGL).

§ Visibility from observer

Set your observer location to see the next 7 days of passes ≥ 10°. The values pass through the URL so the page stays shareable.

No JS? Fill the form by hand. The geolocation button needs JavaScript.